Simultaneous Nadir Overpasses (SNOs) Predictions

Prediction of SNOs between FY3D and NOAA-19 Satellite Orbit:

Table of predicted SNOs for the next 14.0 days since TLE Epoch: 12/10/2022
Index Date (FY3D) Time (FY3D) Lat,Lon (FY3D) SZA (FY3D ) Date (NOAA-19) Time (NOAA-19) Lat,Lon (NOAA-19) SZA (NOAA-19 ) Distance(km) Time Diff (sec)
1 12/16/2022 20:42:38 -76.84, 37.18 79.67 12/16/2022 20:41:26 -76.82, 35.84 79.62 34.03 72
2 12/16/2022 21:33:28 76.98,-156.10 100.50 12/16/2022 21:32:16 76.99,-156.12 100.52 1.31 72
3 12/16/2022 22:24:13 -76.98, 11.22 79.51 12/16/2022 22:23:21 -77.01, 11.19 79.46 3.44 52
4 12/16/2022 23:15:00 76.99, 178.47 100.52 12/16/2022 23:14:15 77.02, 178.49 100.55 2.62 45
5 12/17/2022 00:05:45 -76.99, -14.21 79.49 12/17/2022 00:05:21 -76.99, -14.39 79.48 4.42 24
6 12/17/2022 00:56:32 77.00, 153.04 100.53 12/17/2022 00:56:15 77.00, 152.91 100.54 3.27 17
7 12/17/2022 01:47:18 -77.04, -39.82 79.42 12/17/2022 01:47:20 -77.02, -39.77 79.45 3.42 2
8 12/17/2022 02:38:04 77.02, 127.61 100.55 12/17/2022 02:38:14 77.02, 127.52 100.56 2.28 10
9 12/17/2022 03:28:50 -77.06, -65.25 79.41 12/17/2022 03:29:19 -77.04, -65.16 79.43 2.82 29
10 12/17/2022 04:19:36 77.03, 102.18 100.57 12/17/2022 04:20:13 77.04, 102.14 100.58 2.32 37
11 12/17/2022 05:10:22 -77.07, -90.68 79.39 12/17/2022 05:11:18 -77.06, -90.55 79.41 3.21 56
12 12/17/2022 06:01:08 77.04, 76.75 100.58 12/17/2022 06:02:12 77.07, 76.75 100.60 3.36 64
13 12/17/2022 06:52:03 -77.46,-117.81 78.92 12/17/2022 06:53:09 -77.41,-114.39 79.12 82.72 66



Historial Predications of SNOs between FY3D and NOAA-19
